| time (UTC) | temp C | wind direction | speed KPH | gust KPH | rain 1hr cm | rain 24hr cm | rain mn cm | humidity % | barometer mb |
| 20260509054557 | 12 | 0 | 0.0 | 0.0 | 0.00 | 0.00 | 0.00 | 92 | 1010.2 |
| 20260509053059 | 12 | 0 | 0.0 | 0.0 | 0.00 | 0.00 | 0.00 | 91 | 1010.1 |
| 20260509051556 | 12 | 0 | 0.0 | 1.6 | 0.00 | 0.00 | 0.00 | 91 | 1010.0 |
| 20260509050108 | 12 | 0 | 0.0 | 1.6 | 0.00 | 0.00 | 0.00 | 91 | 1009.9 |
| 20260509044556 | 12 | 0 | 0.0 | 1.6 | 0.00 | 0.00 | 0.00 | 91 | 1009.9 |
| 20260509043105 | 12 | 0 | 0.0 | 6.4 | 0.00 | 0.00 | 0.00 | 90 | 1009.9 |
| 20260509041557 | 12 | 0 | 0.0 | 4.8 | 0.00 | 0.00 | 0.00 | 90 | 1010.1 |
| 20260509040057 | 12 | 0 | 0.0 | 1.6 | 0.00 | 0.00 | 0.00 | 89 | 1010.1 |
| 20260509034558 | 12 | 0 | 0.0 | 1.6 | 0.00 | 0.00 | 0.00 | 88 | 1010.1 |
| 20260509033059 | 13 | 0 | 0.0 | 3.2 | 0.00 | 0.00 | 0.00 | 87 | 1010.1 |
| 20260509031558 | 13 | 209 | 0.0 | 8.0 | 0.00 | 0.00 | 0.00 | 86 | 1010.3 |
| 20260509030057 | 13 | 0 | 0.0 | 6.4 | 0.00 | 0.00 | 0.00 | 83 | 1010.5 |
| 20260509024558 | 13 | 0 | 0.0 | 6.4 | 0.00 | 0.00 | 0.00 | 81 | 1010.7 |
| 20260509023057 | 15 | 119 | 3.2 | 11.3 | 0.00 | 0.00 | 0.00 | 77 | 1010.8 |
| 20260509021558 | 15 | 112 | 1.6 | 16.1 | 0.00 | 0.00 | 0.00 | 68 | 1010.6 |
| 20260509020058 | 16 | 0 | 0.0 | 0.0 | 0.00 | 0.00 | 0.00 | 63 | 1010.3 |
| 20260509014556 | 16 | 0 | 0.0 | 1.6 | 0.00 | 0.00 | 0.00 | 58 | 1010.0 |
| 20260509013058 | 16 | 0 | 0.0 | 1.6 | 0.00 | 0.00 | 0.00 | 58 | 1009.7 |
| 20260509011556 | 17 | 0 | 0.0 | 3.2 | 0.00 | 0.00 | 0.00 | 57 | 1009.6 |
| 20260509010104 | 17 | 0 | 0.0 | 3.2 | 0.00 | 0.00 | 0.00 | 54 | 1009.5 |
| 20260509004621 | 17 | 0 | 0.0 | 4.8 | 0.00 | 0.00 | 0.00 | 52 | 1009.6 |
| 20260509003057 | 17 | 319 | 1.6 | 6.4 | 0.00 | 0.00 | 0.00 | 53 | 1009.7 |
| 20260509001557 | 18 | 355 | 0.0 | 4.8 | 0.00 | 0.00 | 0.00 | 50 | 1009.6 |
| 20260509000059 | 18 | 347 | 1.6 | 8.0 | 0.00 | 0.00 | 0.00 | 49 | 1009.6 |
| 20260508234607 | 18 | 5 | 1.6 | 8.0 | 0.00 | 0.00 | 0.00 | 50 | 1009.6 |
| 20260508233104 | 18 | 326 | 4.8 | 9.7 | 0.00 | 0.00 | 0.00 | 46 | 1009.6 |
| 20260508230106 | 19 | 352 | 8.0 | 19.3 | 0.00 | 0.00 | 0.00 | 44 | 1009.7 |
| 20260508224605 | 19 | 306 | 3.2 | 25.7 | 0.00 | 0.00 | 0.00 | 45 | 1009.7 |
| 20260508223057 | 19 | 331 | 4.8 | 19.3 | 0.00 | 0.00 | 0.00 | 44 | 1009.7 |
| 20260508221606 | 19 | 23 | 6.4 | 17.7 | 0.00 | 0.00 | 0.00 | 45 | 1009.6 |
| 20260508214613 | 19 | 11 | 3.2 | 17.7 | 0.00 | 0.00 | 0.00 | 44 | 1009.4 |
| 20260508213101 | 19 | 350 | 8.0 | 22.5 | 0.00 | 0.00 | 0.00 | 41 | 1009.5 |
| 20260508211558 | 20 | 5 | 16.1 | 25.7 | 0.00 | 0.00 | 0.00 | 41 | 1009.7 |
| 20260508210059 | 20 | 331 | 8.0 | 24.1 | 0.00 | 0.00 | 0.00 | 41 | 1009.7 |
| 20260508204556 | 20 | 337 | 16.1 | 32.2 | 0.00 | 0.00 | 0.00 | 39 | 1009.9 |
| 20260508203056 | 20 | 305 | 8.0 | 24.1 | 0.00 | 0.00 | 0.00 | 41 | 1010.2 |
| 20260508201557 | 20 | 355 | 9.7 | 27.4 | 0.00 | 0.00 | 0.00 | 39 | 1010.3 |
| 20260508200059 | 20 | 22 | 6.4 | 27.4 | 0.00 | 0.00 | 0.00 | 40 | 1010.8 |
| 20260508194556 | 20 | 322 | 14.5 | 33.8 | 0.00 | 0.00 | 0.00 | 40 | 1011.1 |
| 20260508193110 | 19 | 348 | 9.7 | 19.3 | 0.00 | 0.00 | 0.00 | 42 | 1011.4 |
| 20260508191559 | 19 | 333 | 12.9 | 32.2 | 0.00 | 0.00 | 0.00 | 40 | 1011.6 |
| 20260508190113 | 19 | 57 | 14.5 | 25.7 | 0.00 | 0.00 | 0.00 | 42 | 1011.6 |
| 20260508184602 | 20 | 330 | 8.0 | 30.6 | 0.00 | 0.00 | 0.00 | 43 | 1011.5 |
| 20260508183116 | 19 | 302 | 12.9 | 25.7 | 0.00 | 0.00 | 0.00 | 40 | 1011.6 |
| 20260508181601 | 19 | 330 | 12.9 | 27.4 | 0.00 | 0.00 | 0.00 | 42 | 1012.0 |
| 20260508180110 | 19 | 340 | 16.1 | 29.0 | 0.00 | 0.00 | 0.00 | 41 | 1012.3 |
| 20260508174614 | 19 | 297 | 14.5 | 30.6 | 0.00 | 0.00 | 0.00 | 41 | 1012.5 |
| 20260508173101 | 18 | 23 | 14.5 | 29.0 | 0.00 | 0.00 | 0.00 | 45 | 1012.8 |
| 20260508171606 | 18 | 294 | 14.5 | 27.4 | 0.00 | 0.00 | 0.00 | 47 | 1013.2 |
| 20260508170107 | 18 | 336 | 16.1 | 30.6 | 0.00 | 0.00 | 0.00 | 47 | 1013.3 |
| 20260508164601 | 17 | 350 | 11.3 | 25.7 | 0.00 | 0.00 | 0.00 | 49 | 1013.8 |
| 20260508163103 | 17 | 5 | 11.3 | 25.7 | 0.00 | 0.00 | 0.00 | 52 | 1014.1 |
| 20260508161611 | 17 | 344 | 12.9 | 24.1 | 0.00 | 0.00 | 0.00 | 49 | 1014.3 |
| 20260508160100 | 17 | 302 | 6.4 | 19.3 | 0.00 | 0.00 | 0.00 | 50 | 1014.4 |
| 20260508154601 | 16 | 355 | 11.3 | 27.4 | 0.00 | 0.00 | 0.00 | 53 | 1014.7 |
| 20260508153100 | 16 | 318 | 17.7 | 30.6 | 0.00 | 0.00 | 0.00 | 51 | 1014.7 |
| 20260508151559 | 16 | 315 | 9.7 | 32.2 | 0.00 | 0.00 | 0.00 | 52 | 1014.7 |
| 20260508144602 | 16 | 351 | 6.4 | 25.7 | 0.00 | 0.00 | 0.00 | 52 | 1015.5 |
| 20260508143101 | 15 | 355 | 12.9 | 24.1 | 0.00 | 0.00 | 0.00 | 53 | 1015.5 |
| 20260508141607 | 15 | 32 | 3.2 | 17.7 | 0.00 | 0.00 | 0.00 | 55 | 1015.5 |
| 20260508140056 | 14 | 342 | 6.4 | 24.1 | 0.00 | 0.00 | 0.00 | 55 | 1015.7 |
| 20260508134559 | 13 | 19 | 6.4 | 19.3 | 0.00 | 0.00 | 0.00 | 56 | 1015.7 |
| 20260508133100 | 13 | 32 | 8.0 | 20.9 | 0.00 | 0.00 | 0.00 | 59 | 1015.5 |
| 20260508131607 | 12 | 340 | 8.0 | 20.9 | 0.00 | 0.00 | 0.00 | 60 | 1015.5 |
| 20260508130057 | 11 | 5 | 9.7 | 17.7 | 0.00 | 0.00 | 0.00 | 61 | 1015.6 |
| 20260508124600 | 11 | 360 | 6.4 | 16.1 | 0.00 | 0.00 | 0.00 | 66 | 1015.6 |
| 20260508123115 | 10 | 355 | 8.0 | 17.7 | 0.00 | 0.00 | 0.00 | 67 | 1015.5 |
| 20260508121608 | 8 | 347 | 3.2 | 8.0 | 0.00 | 0.00 | 0.00 | 71 | 1015.4 |
| 20260508120110 | 7 | 350 | 1.6 | 4.8 | 0.00 | 0.00 | 0.00 | 78 | 1015.3 |
| 20260508114602 | 6 | 0 | 0.0 | 3.2 | 0.00 | 0.00 | 0.00 | 80 | 1015.3 |
| 20260508113108 | 4 | 0 | 0.0 | 0.0 | 0.00 | 0.00 | 0.00 | 87 | 1015.1 |
| 20260508111558 | 4 | 0 | 0.0 | 0.0 | 0.00 | 0.00 | 0.00 | 90 | 1015.0 |
| 20260508110108 | 4 | 0 | 0.0 | 0.0 | 0.00 | 0.00 | 0.00 | 89 | 1014.8 |
| 20260508104559 | 4 | 0 | 0.0 | 0.0 | 0.00 | 0.03 | 0.00 | 89 | 1014.7 |
| 20260508103108 | 4 | 0 | 0.0 | 0.0 | 0.00 | 0.03 | 0.00 | 87 | 1014.7 |
| 20260508101558 | 5 | 0 | 0.0 | 0.0 | 0.00 | 0.03 | 0.00 | 85 | 1014.8 |
| 20260508100059 | 5 | 0 | 0.0 | 0.0 | 0.00 | 0.03 | 0.00 | 84 | 1014.8 |
| 20260508094600 | 5 | 0 | 0.0 | 0.0 | 0.00 | 0.03 | 0.00 | 86 | 1014.8 |
| 20260508093105 | 5 | 0 | 0.0 | 0.0 | 0.00 | 0.03 | 0.00 | 85 | 1014.9 |
| 20260508091557 | 4 | 0 | 0.0 | 0.0 | 0.00 | 0.03 | 0.00 | 88 | 1014.7 |
| 20260508090113 | 4 | 0 | 0.0 | 0.0 | 0.00 | 0.03 | 0.00 | 92 | 1014.8 |
| 20260508084600 | 3 | 0 | 0.0 | 0.0 | 0.00 | 0.03 | 0.00 | 93 | 1014.8 |
| 20260508083103 | 3 | 0 | 0.0 | 0.0 | 0.00 | 0.03 | 0.00 | 93 | 1014.7 |
| 20260508081610 | 3 | 0 | 0.0 | 0.0 | 0.00 | 0.03 | 0.00 | 93 | 1014.7 |
| 20260508074557 | 3 | 0 | 0.0 | 0.0 | 0.00 | 0.03 | 0.00 | 93 | 1014.8 |
| 20260508073059 | 3 | 0 | 0.0 | 0.0 | 0.00 | 0.03 | 0.00 | 92 | 1014.8 |
| 20260508071558 | 3 | 0 | 0.0 | 0.0 | 0.00 | 0.03 | 0.00 | 92 | 1014.9 |
| 20260508070059 | 3 | 0 | 0.0 | 0.0 | 0.00 | 0.03 | 0.00 | 92 | 1014.7 |
| 20260508064558 | 3 | 0 | 0.0 | 0.0 | 0.00 | 0.03 | 0.00 | 92 | 1015.1 |
| 20260508063104 | 3 | 0 | 0.0 | 0.0 | 0.00 | 0.03 | 0.00 | 92 | 1015.2 |
| 20260508061557 | 3 | 0 | 0.0 | 0.0 | 0.00 | 0.03 | 0.00 | 92 | 1015.4 |
| 20260508060056 | 4 | 0 | 0.0 | 0.0 | 0.00 | 0.03 | 0.00 | 92 | 1015.6 |